Hourly Weather Orsay

Today, 2 December, Wednesday

Time Temperature Precipitation Wind Pressure Humidity
00:00 +5°C° 0 mm 5 mps 753 mmHg 78%
01:00 +5°C° 0.1 mm 5 mps 752 mmHg 80%
02:00 +5°C° 0.1 mm 5 mps 752 mmHg 82%
03:00 +6°C° 0.1 mm 5 mps 752 mmHg 84%
04:00 +5°C° 0 mm 5 mps 752 mmHg 84%
05:00 +5°C° 0 mm 4 mps 752 mmHg 85%
06:00 +5°C° 0 mm 4 mps 752 mmHg 86%
07:00 +5°C° 0 mm 4 mps 752 mmHg 86%
08:00 +5°C° 0 mm 3 mps 752 mmHg 87%
09:00 +6°C° 0 mm 2 mps 752 mmHg 88%
10:00 +6°C° 0 mm 2 mps 751 mmHg 85%
11:00 +7°C° 0 mm 2 mps 751 mmHg 82%
12:00 +7°C° 0 mm 3 mps 751 mmHg 79%
13:00 +7°C° 0 mm 2 mps 751 mmHg 79%
14:00 +7°C° 0 mm 2 mps 750 mmHg 80%
15:00 +7°C° 0 mm 2 mps 750 mmHg 80%
16:00 +7°C° 0 mm 2 mps 749 mmHg 81%
17:00 +6°C° 0 mm 2 mps 749 mmHg 81%
18:00 +6°C° 0 mm 2 mps 749 mmHg 81%
19:00 +6°C° 0 mm 2 mps 748 mmHg 81%
20:00 +6°C° 0 mm 2 mps 748 mmHg 81%
21:00 +5°C° 0 mm 2 mps 748 mmHg 81%
22:00 +5°C° 0.1 mm 3 mps 747 mmHg 82%
23:00 +5°C° 0.1 mm 3 mps 747 mmHg 83%

Tomorrow, 3 December, Thursday

Time Temperature Precipitation Wind Pressure Humidity
00:00 +5°C° 0.1 mm 4 mps 746 mmHg 83%
01:00 +5°C° 0.2 mm 4 mps 745 mmHg 85%
02:00 +5°C° 0.2 mm 4 mps 744 mmHg 87%
03:00 +5°C° 0.2 mm 4 mps 744 mmHg 89%
04:00 +5°C° 0 mm 4 mps 743 mmHg 88%
05:00 +5°C° 0 mm 3 mps 742 mmHg 87%
06:00 +5°C° 0 mm 3 mps 742 mmHg 86%
07:00 +5°C° 0 mm 3 mps 741 mmHg 83%
08:00 +5°C° 0 mm 3 mps 740 mmHg 80%
09:00 +5°C° 0 mm 4 mps 740 mmHg 78%
10:00 +5°C° 0.1 mm 4 mps 739 mmHg 76%
11:00 +5°C° 0.1 mm 5 mps 738 mmHg 75%
12:00 +5°C° 0.1 mm 5 mps 737 mmHg 74%
13:00 +5°C° 0.5 mm 5 mps 736 mmHg 79%
14:00 +4°C° 0.5 mm 6 mps 734 mmHg 83%
15:00 +3°C° 0.5 mm 6 mps 733 mmHg 87%
16:00 +4°C° 0.3 mm 7 mps 732 mmHg 86%
17:00 +4°C° 0.3 mm 7 mps 730 mmHg 85%
18:00 +5°C° 0.3 mm 8 mps 729 mmHg 84%
19:00 +5°C° 1.1 mm 7 mps 728 mmHg 85%
20:00 +5°C° 1.1 mm 7 mps 727 mmHg 85%
21:00 +5°C° 1.1 mm 7 mps 726 mmHg 86%
22:00 +5°C° 0.4 mm 6 mps 726 mmHg 87%
23:00 +5°C° 0.4 mm 5 mps 725 mmHg 87%

Day after tomorrow, 4 December, Friday

Time Temperature Precipitation Wind Pressure Humidity
00:00 +5°C° 0.4 mm 4 mps 724 mmHg 87%
01:00 +5°C° 1.1 mm 5 mps 723 mmHg 87%
02:00 +4°C° 1.1 mm 6 mps 722 mmHg 87%
03:00 +4°C° 1.1 mm 7 mps 722 mmHg 87%
04:00 +4°C° 0.2 mm 7 mps 721 mmHg 85%
05:00 +4°C° 0.2 mm 7 mps 721 mmHg 84%
06:00 +4°C° 0.2 mm 7 mps 721 mmHg 83%
07:00 +3°C° 0.2 mm 6 mps 721 mmHg 84%
08:00 +3°C° 0.2 mm 6 mps 722 mmHg 85%
09:00 +3°C° 0.2 mm 5 mps 722 mmHg 86%
10:00 +3°C° 0.2 mm 6 mps 723 mmHg 85%
11:00 +2°C° 0.2 mm 7 mps 723 mmHg 84%
12:00 +1°C° 0.2 mm 8 mps 724 mmHg 83%
13:00 +3°C° 0.5 mm 7 mps 725 mmHg 81%
14:00 +3°C° 0.5 mm 6 mps 725 mmHg 79%
15:00 +3°C° 0.5 mm 5 mps 725 mmHg 77%
16:00 +3°C° 0.2 mm 4 mps 726 mmHg 79%
17:00 +3°C° 0.2 mm 3 mps 727 mmHg 80%
18:00 +4°C° 0.2 mm 2 mps 728 mmHg 82%
19:00 +3°C° 0.1 mm 2 mps 728 mmHg 83%
20:00 +3°C° 0.1 mm 2 mps 728 mmHg 84%
21:00 +1°C° 0.1 mm 3 mps 729 mmHg 85%
22:00 +1°C° 0 mm 3 mps 729 mmHg 85%
23:00 +1°C° 0 mm 3 mps 729 mmHg 85%

5 December, Saturday

Time Temperature Precipitation Wind Pressure Humidity
00:00 +1°C° 0 mm 3 mps 729 mmHg 84%
01:00 +1°C° 0 mm 2 mps 730 mmHg 85%
02:00 +1°C° 0 mm 2 mps 730 mmHg 85%
03:00 +1°C° 0 mm 2 mps 730 mmHg 86%
04:00 +1°C° 0 mm 2 mps 730 mmHg 87%
05:00 +1°C° 0 mm 2 mps 730 mmHg 89%
06:00 +1°C° 0 mm 2 mps 731 mmHg 90%
07:00 +1°C° 0 mm 2 mps 731 mmHg 89%
08:00 +1°C° 0 mm 2 mps 731 mmHg 89%
09:00 +1°C° 0 mm 2 mps 731 mmHg 88%
10:00 +1°C° 0 mm 3 mps 731 mmHg 88%
11:00 +2°C° 0 mm 3 mps 732 mmHg 87%
12:00 +2°C° 0 mm 3 mps 732 mmHg 86%
13:00 +2°C° 0 mm 3 mps 732 mmHg 85%
14:00 +3°C° 0 mm 3 mps 732 mmHg 83%
15:00 +3°C° 0 mm 3 mps 732 mmHg 81%
16:00 +3°C° 0 mm 3 mps 732 mmHg 83%
17:00 +2°C° 0 mm 3 mps 732 mmHg 84%
18:00 +2°C° 0 mm 3 mps 731 mmHg 86%
19:00 +2°C° 0 mm 3 mps 731 mmHg 86%
20:00 +1°C° 0 mm 3 mps 731 mmHg 87%
21:00 +1°C° 0 mm 3 mps 731 mmHg 88%
22:00 +1°C° 0.1 mm 3 mps 731 mmHg 87%
23:00 0°C° 0.1 mm 4 mps 731 mmHg 85%

6 December, Sunday

Time Temperature Precipitation Wind Pressure Humidity
00:00 +1°C° 0.1 mm 4 mps 731 mmHg 84%
01:00 0°C° 0.4 mm 4 mps 730 mmHg 87%
02:00 0°C° 0.4 mm 4 mps 730 mmHg 89%
03:00 0°C° 0.4 mm 4 mps 730 mmHg 91%
04:00 0°C° 0.5 mm 4 mps 730 mmHg 93%
05:00 0°C° 0.5 mm 4 mps 730 mmHg 94%
06:00 -1°C° 0.5 mm 4 mps 730 mmHg 95%
07:00 -1°C° 0.9 mm 4 mps 731 mmHg 95%
08:00 -1°C° 0.9 mm 4 mps 731 mmHg 95%
09:00 -1°C° 0.9 mm 4 mps 731 mmHg 96%
10:00 0°C° 0.4 mm 4 mps 731 mmHg 96%
11:00 +1°C° 0.4 mm 3 mps 732 mmHg 95%
12:00 +1°C° 0.4 mm 3 mps 732 mmHg 95%
13:00 +1°C° 0.5 mm 3 mps 732 mmHg 95%
14:00 +1°C° 0.5 mm 3 mps 733 mmHg 95%
15:00 +1°C° 0.5 mm 3 mps 733 mmHg 95%
16:00 +1°C° 0.1 mm 3 mps 734 mmHg 94%
17:00 +1°C° 0.1 mm 3 mps 734 mmHg 92%
18:00 +1°C° 0.1 mm 3 mps 735 mmHg 91%
19:00 +1°C° 0 mm 3 mps 735 mmHg 90%
20:00 +1°C° 0 mm 3 mps 736 mmHg 90%
21:00 +2°C° 0 mm 2 mps 736 mmHg 89%
22:00 +1°C° 0 mm 3 mps 737 mmHg 90%
23:00 0°C° 0 mm 3 mps 737 mmHg 91%

7 December, Monday

Time Temperature Precipitation Wind Pressure Humidity
00:00 0°C° 0 mm 3 mps 737 mmHg 92%
01:00 0°C° 0 mm 3 mps 737 mmHg 89%
02:00 -1°C° 0 mm 4 mps 737 mmHg 87%
03:00 -1°C° 0 mm 5 mps 737 mmHg 84%
04:00 -1°C° 0.1 mm 5 mps 737 mmHg 84%
05:00 -2°C° 0.1 mm 6 mps 738 mmHg 83%
06:00 -1°C° 0.1 mm 6 mps 738 mmHg 83%
07:00 -1°C° 0.2 mm 6 mps 738 mmHg 81%
08:00 -1°C° 0.2 mm 6 mps 738 mmHg 80%
09:00 0°C° 0.2 mm 7 mps 738 mmHg 78%
10:00 0°C° 0.1 mm 7 mps 738 mmHg 80%
11:00 +2°C° 0.1 mm 7 mps 738 mmHg 81%
12:00 +2°C° 0.1 mm 7 mps 739 mmHg 83%
13:00 +2°C° 0.1 mm 6 mps 739 mmHg 84%
14:00 +2°C° 0.1 mm 6 mps 739 mmHg 86%
15:00 +3°C° 0.1 mm 6 mps 739 mmHg 87%
16:00 +2°C° 0 mm 5 mps 739 mmHg 86%
17:00 +2°C° 0 mm 5 mps 739 mmHg 85%
18:00 +2°C° 0 mm 5 mps 739 mmHg 85%
19:00 +3°C° 0 mm 4 mps 739 mmHg 85%
20:00 +1°C° 0 mm 4 mps 740 mmHg 86%
21:00 +1°C° 0 mm 4 mps 740 mmHg 87%
22:00 +1°C° 0 mm 4 mps 739 mmHg 89%
23:00 +1°C° 0 mm 4 mps 739 mmHg 91%
Show more